Regional Weather Roundup
Issued by NWS

Home | Current Version | Previous Version | Graphics & Text | Print | Product List | Glossary On
Versions: 1 2 3 4 5 6 7 8 9 10 11 12 13 14 15 16 17 18 19 20 21 22 23 24 25 26 27 28 29 30 31 32 33 34 35 36 37 38 39 40 41 42 43 44 45 46 47 48 49 50
000
ASUS45 KBOU 230907
RWRCO

WEATHER ROUNDUP FOR COLORADO
NATIONAL WEATHER SERVICE DENVER/BOULDER CO
200 AM MST MON JAN 23 2017

NOTE: "FAIR" INDICATES FEW OR NO CLOUDS BELOW 12000 FEET WITH NO
SIGNIFICANT WEATHER AND/OR OBSTRUCTIONS TO VISIBILITY.

COZ001>005-013-030-031-231000-
...NORTHWEST COLORADO...

CITY           SKY/WX    TMP DP  RH WIND       PRES   REMARKS
CRAIG          CLOUDY    33  22  63 W6        29.73F WCI  28
HAYDEN         CLOUDY    23  18  80 E6        29.74F WCI  16
MEEKER         CLOUDY    32  23  69 S7        29.76F WCI  26
MOUNT WERNER   NOT AVBL
STEAMBOAT SPGS CLOUDY    23  20  87 CALM      29.74R
WALDEN           N/A     23  18  80 S18G24    29.71F WCI   9
$$

COZ006>008-011-231000-
...WEST CENTRAL VALLEYS...

CITY           SKY/WX    TMP DP  RH WIND       PRES   REMARKS
GRAND JUNCTION CLOUDY    34  30  85 SE12      29.85R WCI  25
MONTROSE       CLOUDY    29  28  96 NW5       29.88R WCI  24
EAGLE          CLOUDY    24  22  91 E3        29.82F
RIFLE          CLOUDY    29  28  96 E5        29.83F WCI  24
DELTA          CLOUDY    34  29  84 SE3       29.87F
NUCLA          CLOUDY    34  27  75 S7        29.91S WCI  28
$$

COZ017>023-064>068-231000-
...SOUTHWEST COLORADO...

CITY           SKY/WX    TMP DP  RH WIND       PRES   REMARKS
DURANGO        LGT SNOW  24  21  88 E3        30.02F FOG
CORTEZ         CLOUDY    31  26  82 S13       29.96F WCI  21
PAGOSA SPRINGS LGT SNOW  23  22  98 CALM      30.01F
TELLURIDE      NOT AVBL
WOLF CREEK PAS CLOUDY     9   7  92 S23G29    29.95S WCI -12
$$

COZ009-010-012-014-032>034-037-058>063-231000-
...CENTRAL COLORADO...

CITY           SKY/WX    TMP DP  RH WIND       PRES   REMARKS
ASPEN          MOCLDY    21  19  92 VRB3      29.76R
BUENA VISTA    CLOUDY    24  20  87 SE20      29.81F WCI   9
COPPER MTN     LGT SNOW  27  18  69 W24G35    29.75F WCI  12
BERTHOUD PASS  CLOUDY    18   7  62 MISG      29.68F
COTTONWOOD PAS LGT SNOW  23  21  93 E3        29.78F
GUNNISON       LGT SNOW  20  17  88 NE9       29.87F FOG     WCI   9
KREMMLING      CLOUDY    28  21  74 SE7       29.77F WCI  21
LEADVILLE      MOCLDY    15  12  88 N8        29.76F WCI   4
MONARCH PASS   CLOUDY    12   9  85 SW14G28   29.91F WCI  -3
SALIDA         CLOUDY    29  20  69 SE8G23    29.92F WCI  21
SUNLIGHT       CLOUDY    18  14  86 SW16G30   29.79S WCI   3
WILKERSON PASS LGT SNOW  16  12  86 SW17G25   29.76F VSB 3/4 WCI   0
$$

COZ069>075-231000-
...SAN LUIS VALLEY/SANGRE DE CRISTO MOUNTAINS...

CITY           SKY/WX    TMP DP  RH WIND       PRES   REMARKS
ALAMOSA        FAIR      15  11  83 SE7       29.91F WCI   5
LA VETA PASS   LGT SNOW  21  18  86 NE14G24   29.91S WCI   8
SAGUACHE       LGT SNOW  21  19  93 NW3       29.94F
$$

COZ035-036-038>040-231000-
...NORTHERN COLORADO FRONT RANGE...

CITY           SKY/WX    TMP DP  RH WIND       PRES   REMARKS
DENVER INTL AP MOCLDY    30  16  56 NW5       29.69R WCI  25
DMNS CITY PARK   N/A     32  15  49 N6        29.70R WCI  26
AURORA         MOCLDY    33  16  49 NW8       29.69R WCI  25
FRONT RANGE AP FAIR      34  21  60 W6        29.70R WCI  29
ERIE MUNI ARPT FAIR      29  21  70 CALM      29.70F
BOULDER MUN AP FAIR      32  18  55 N3        29.70F
CENTENNIAL     FAIR      37  19  48 W7        29.68F
BROOMFIELD     FAIR      32  14  47 N10       29.69F WCI  24
FORT COLLINS   FAIR      28  18  64 N7        29.71F WCI  21
LONGMONT       FAIR      33  18  54 CALM      29.73S
$$

COZ041-046-047-076>085-087-088-231000-
...PIKES PEAK/PALMER DIVIDE AND SOUTHERN FOOTHILLS...

CITY           SKY/WX    TMP DP  RH WIND       PRES   REMARKS
COLO. SPRINGS  FAIR      26  15  63 E3        29.76F
A. F. ACADEMY  FAIR      25  14  63 S3        29.74F
SCHRIEVER AFB  NOT AVBL
ELLICOTT       FAIR     N/A N/A N/A S14       29.74F
FALCON         FAIR      24  15  69 SW3       29.75F
FORT CARSON    NOT AVBL
LIMON          FAIR      29  20  69 S14       29.75F WCI  18
MONUMENT HILL  FAIR      34  21  60 SW23G29   29.69F WCI  22
TRINIDAD       FAIR      35  19  52 W8        29.81R WCI  29
$$

COZ042>045-048>051-090-091-231000-
...NORTHEAST COLORADO...

CITY           SKY/WX    TMP DP  RH WIND       PRES   REMARKS
GREELEY ARPT   NOT AVBL
AKRON          FAIR      34  21  59 S13       29.75F WCI  25
BURLINGTON     FAIR      32  25  75 S9        29.80F WCI  24
WRAY           FAIR      32  25  74 CALM      29.79F
STERLING       CLOUDY    32  23  69 E3        29.75S
HOLYOKE        FAIR      32  27  80 S6        29.79F WCI  26
FORT MORGAN    FAIR      32  22  66 SE8       29.73S WCI  25
$$

COZ086-089-092>099-231000-
...SOUTHEAST COLORADO...

CITY           SKY/WX    TMP DP  RH WIND       PRES   REMARKS
PUEBLO         FAIR      27  21  78 E6        29.77F WCI  20
LA JUNTA       FAIR      31  19  61 S9        29.80S WCI  23
LAMAR          FAIR      29  23  78 CALM      29.80F
SPRINGFIELD      N/A     27  20  75 SW9       29.85F WCI  18
$$



USA.gov is the U.S. government's official web portal to all federal, state and local government web resources and services.